Regional Weather Roundup
Issued by NWS

Home | Current Version | Previous Version | Text Only | Print | Product List | Glossary On
Versions: 1 2 3 4 5 6 7 8 9 10 11 12 13 14 15 16 17 18 19 20 21 22 23 24 25 26 27 28 29 30 31 32 33 34 35 36 37 38 39 40 41 42 43 44 45 46 47 48 49 50
000
ASUS45 KPSR 131910
RWRAZ

ARIZONA HOURLY REGIONAL WEATHER ROUNDUP
NATIONAL WEATHER SERVICE PHOENIX AZ
1200 PM MST SAT FEB 13 2016

NOTE: FAIR INDICATES FEW OR NO CLOUDS BELOW 12,000 FEET WITH NO
SIGNIFICANT WEATHER AND/OR OBSTRUCTIONS TO VISIBILITY.

AZZ001>003-036-132000-
NORTHWEST ARIZONA

CITY           SKY/WX    TMP DP  RH WIND       PRES   REMARKS
BULLHEAD CITY  SUNNY     72  28  20 N17G23    30.11F
KINGMAN        SUNNY     67  22  18 N6        30.19S
$$

AZZ004>008-015-016-018-132000-
NORTH CENTRAL ARIZONA

CITY           SKY/WX    TMP DP  RH WIND       PRES   REMARKS
GRAND CANYON   SUNNY     61  13  15 W9        30.29F
WILLIAMS       SUNNY     61  16  17 W8        30.35F
PRESCOTT       SUNNY     66  20  17 CALM      30.24F
FLAGSTAFF      SUNNY     58  12  16 SW6       30.30F
PAYSON         SUNNY     68  19  15 VRB3      30.24F
PAGE           SUNNY     49  32  52 N3        30.24F
$$

AZZ009>014-017-132000-
NORTHEAST ARIZONA

CITY           SKY/WX    TMP DP  RH WIND       PRES   REMARKS
WINSLOW        SUNNY     59  21  23 E3        30.24F
SAINT JOHNS    SUNNY     64  15  15 VRB3      30.24F
WINDOW ROCK    SUNNY     60   0   9 VRB3      30.27F
SHOW LOW       SUNNY     63   9  12 SW12      30.29F
$$

AZZ023-132000-
GREATER PHOENIX AREA

CITY           SKY/WX    TMP DP  RH WIND       PRES   REMARKS
PHOENIX        MOSUNNY   78  26  14 E3        30.06F
BUCKEYE        SUNNY     72  34  25 W3        30.10F
GLENDALE       MOSUNNY   72  32  23 CALM      30.09F
LUKE AFB       SUNNY     73  30  20 S5        30.06F
DEER VALLEY    SUNNY     75  27  17 W6        30.07F
SCOTTSDALE     SUNNY     76  28  17 VRB3      30.08F
MESA-FALCON    MOSUNNY  N/A N/A N/A MISG      30.07F
MESA-GATEWAY   MOSUNNY   73  30  20 SW7       30.09F
CHANDLER       SUNNY     72  32  23 S7        30.08F
$$

AZZ027-028-132000-
SOUTHWEST MARICOPA COUNTY AND PINAL COUNTY

CITY           SKY/WX    TMP DP  RH WIND       PRES   REMARKS
CASA GRANDE    SUNNY     72  28  20 E3        30.09F
GILA BEND      MOSUNNY   72  32  22 VRB5      30.07S
$$

AZZ503-504-507>509-132000-
SOUTHEAST ARIZONA

CITY           SKY/WX    TMP DP  RH WIND       PRES   REMARKS
TUCSON         SUNNY     78  15   9 CALM      30.12F
DAVIS-MONTHAN  SUNNY     76  22  13 CALM      30.10F
RYAN FIELD     SUNNY     75  30  19 E5        30.11F
NOGALES        SUNNY     80  14   8 CALM      30.15F
SIERRA VISTA   SUNNY     75  10   8 E8        30.21F
DOUGLAS        SUNNY     73  12   9 S7        30.19F
SAFFORD        SUNNY     70  18  13 SE7       30.16F
$$

AZZ020-021-025-026-031-132000-
SOUTHWEST ARIZONA

CITY           SKY/WX    TMP DP  RH WIND       PRES   REMARKS
YUMA           SUNNY     79  29  16 N9        30.05F
$$

CAZ031-033-041-043-047-048-061-132000-
SOUTHERN CALIFORNIA

CITY           SKY/WX    TMP DP  RH WIND       PRES   REMARKS
DOWNTOWN L.A.  SUNNY     73  45  36 CALM      30.08F HAZE
L.A. AIRPORT   MOSUNNY   58  53  84 W7        30.09F FOG
SAN DIEGO      PTSUNNY   68  50  52 NW3       30.09F
BURBANK        SUNNY     72  33  24 CALM      30.08F
ONTARIO        PTSUNNY   71  30  21 CALM      30.09F
RIVERSIDE      MOSUNNY   73  32  22 SW3       30.09F
PALM SPRINGS   MOSUNNY   79  28  15 E5        30.07F
EL CENTRO NAS  MOSUNNY   80  23  12 CALM      30.07F
IMPERIAL       SUNNY     77  31  18 W3        30.04F
BLYTHE         SUNNY     71  25  17 CALM      30.08F
NEEDLES        SUNNY     70  29  21 NE7       30.12F
$$

NVZ020-UTZ003-132000-
SOUTHERN NEVADA-UTAH

CITY           SKY/WX    TMP DP  RH WIND       PRES   REMARKS
LAS VEGAS      MOSUNNY   66  22  18 CALM      30.15S
SALT LAKE CITY CLOUDY    31  28  89 N5        30.34F FOG     WCI  26
$$

NMZ009-TXZ055-132000-
NEW MEXICO-WEST TEXAS

CITY           SKY/WX    TMP DP  RH WIND       PRES   REMARKS
ALBUQUERQUE    MOSUNNY   57  19  22 SW5       30.24F
EL PASO        MOSUNNY   67  13  12 S7        30.21F
$$


........................KEY........................
SKY/WX - SKY CONDITION/WEATHER
TMP    - TEMPERATURE IN FAHRENHEIT
DP     - DEW POINT IN FAHRENHEIT
RH     - RELATIVE HUMIDITY IN PERCENT
WIND   - DIRECTION AND SPEED IN MILES PER HOUR (MPH)
VRB    - VARIABLE WIND DIRECTION
PRES   - MEAN SEA LEVEL PRESSURE IN INCHES OF MERCURY
         F - FALLING PRESSURE   R - RISING PRESSURE
         S - STEADY PRESSURE
VSB    - VISIBILITY IN MILES
HX     - HEAT INDEX IN FAHRENHEIT
WCI    - WIND CHILL INDEX IN FAHRENHEIT
TC     - TEMPERATURE IN CELSIUS WHICH IS ALSO KNOWN AS
         TEMPERATURE IN CENTIGRADE
AFB    - AIR FORCE BASE
         LUKE AFB IS LUKE AIR FORCE BASE
         DAVIS-MONTHAN IS DAVIS-MONTHAN AIR FORCE BASE
NAS    - NAVAL AIR STATION
         EL CENTRO NAS IS EL CENTRO NAVAL AIR STATION
N/A    - NOT AVAILABLE




USA.gov is the U.S. government's official web portal to all federal, state and local government web resources and services.